Theta_e
290 290 290 289 288 287 287 287 288 288 288 289 289 289 286 286 283 281 281 282 282 286 285 283 285 284 285 284 284 283 284 283 281 284 283 283 283 283 284 286 288 287 287 288 288 288 289 289 289 289 289 289 289 290 290 290 290 290 291 291 292 293 293 293 294 293 293 293 294 295 294 294 295 295
289 289 288 288 287 287 287 287 286 287 287 287 287 286 286 286 284 284 282 283 285 284 285 285 285 284 283 284 283 284 283 282 281 283 283 283 283 282 283 284 285 285 286 287 286 287 289 289 289 289 288 288 288 289 289 289 290 290 290 291 291 292 292 293 292 292 292 293 293 294 294 294 294 294
287 286 286 287 286 286 286 285 285 285 286 287 286 286 287 286 286 284 284 281 284 284 283 284 286 284 284 284 283 283 283 282 281 282 283 283 282 281 282 283 284 284 285 285 286 287 288 289 289 288 288 288 288 288 288 288 289 289 289 289 290 291 291 290 290 291 291 292 293 293 293 293 293 293
287 286 285 285 285 284 285 284 285 285 286 285 285 285 286 286 285 285 283 281 281 284 284 285 284 284 283 284 282 283 283 282 279 282 282 282 281 282 283 283 283 283 284 284 285 286 287 288 288 288 287 287 287 287 287 288 288 288 288 289 289 289 289 288 289 290 290 291 291 292 292 292 292 293
285 285 284 284 283 284 284 283 284 285 284 283 284 284 284 284 284 283 282 281 281 283 284 284 284 284 283 281 283 282 282 282 282 281 282 282 282 282 282 283 283 283 283 283 284 285 286 287 288 287 286 285 285 286 286 287 287 287 287 288 288 288 288 288 289 289 289 290 291 291 291 291 291 292
284 284 283 282 282 283 282 282 282 282 282 282 282 282 282 283 283 284 282 281 281 281 283 281 283 282 283 280 284 281 281 281 282 281 281 282 282 281 282 282 283 283 283 283 283 285 286 287 287 286 285 285 285 285 286 286 286 286 286 286 286 286 286 287 288 288 288 290 290 290 291 291 292 292
283 283 283 282 281 280 280 280 281 281 281 281 281 281 282 282 283 283 283 281 280 281 281 282 280 281 281 280 281 282 281 281 281 280 280 281 281 281 281 282 282 283 283 283 284 284 286 286 286 285 284 284 284 284 285 285 285 285 285 285 284 284 284 286 287 287 288 288 289 289 289 290 291 291
283 283 282 280 279 279 279 279 279 280 280 280 281 281 282 282 282 282 282 282 281 280 279 281 280 281 280 280 281 280 280 280 280 280 280 281 280 281 281 281 281 282 283 283 283 284 285 285 285 284 283 283 284 284 284 284 284 284 284 283 283 283 284 285 285 286 286 287 288 289 289 289 289 290
283 282 281 279 278 279 278 278 278 279 279 280 280 281 281 281 281 281 281 281 281 280 279 280 281 280 280 280 280 280 279 279 280 280 279 279 280 280 281 282 282 282 282 283 283 283 283 284 284 283 283 283 283 283 283 283 283 283 283 282 282 283 284 285 285 285 286 286 286 287 288 289 289 289
281 280 280 279 278 278 279 279 279 280 279 279 280 280 280 281 281 280 280 280 280 279 279 279 279 280 279 279 279 280 279 278 277 278 280 280 280 280 280 281 281 281 280 280 281 281 281 282 282 282 282 282 282 282 282 282 282 282 281 281 281 283 284 285 285 285 285 285 285 286 286 287 288 288
280 280 280 279 278 278 279 280 280 280 280 280 279 280 280 280 280 280 280 280 279 279 279 279 279 279 280 279 277 279 280 278 278 277 277 277 280 280 280 279 280 281 280 281 282 281 281 280 280 281 281 281 281 282 281 281 281 280 280 280 281 283 284 284 284 284 284 284 284 285 285 285 286 287
280 279 278 278 279 279 279 280 280 280 279 280 279 280 280 280 279 279 280 279 279 278 278 278 278 279 278 278 279 279 278 276 277 278 277 276 278 279 280 280 279 280 280 280 280 281 280 280 280 281 281 280 280 280 280 279 279 279 280 280 282 283 283 284 284 284 284 284 284 284 284 284 285 286
278 278 278 278 279 279 280 281 281 280 280 280 280 280 280 279 279 279 279 279 278 278 278 278 279 278 277 277 277 277 277 277 277 279 279 278 279 279 278 280 281 280 279 279 279 279 279 277 278 278 278 278 278 278 278 278 278 278 279 281 282 283 283 283 283 283 283 283 283 283 283 284 284 284
277 278 278 278 280 280 280 280 280 281 281 281 280 280 281 279 279 278 278 278 278 278 278 278 278 276 276 277 278 278 278 279 279 278 278 277 278 279 278 279 280 281 280 278 277 278 279 278 277 277 277 278 278 277 277 277 277 277 279 280 282 282 282 282 282 283 283 283 283 283 283 283 283 284
277 277 277 277 279 280 280 280 281 282 282 282 282 281 281 281 280 278 277 277 278 277 277 278 277 277 277 278 279 278 278 279 279 278 278 278 278 277 276 275 279 282 278 276 275 276 279 278 276 276 276 277 277 277 277 277 277 278 279 280 281 282 282 282 282 282 282 282 282 282 282 283 283 283
277 277 277 277 277 278 279 280 280 281 282 283 283 283 282 282 281 281 279 278 277 277 276 276 276 277 276 277 278 278 279 278 279 279 278 277 277 277 276 277 276 280 279 276 275 275 279 278 276 275 276 277 277 276 277 277 278 278 279 280 280 281 281 281 281 281 281 281 281 282 282 282 282 283
278 278 277 277 277 277 279 280 280 280 280 281 282 283 283 283 283 283 283 282 279 278 277 276 276 277 277 277 278 279 279 280 278 278 278 278 278 278 277 277 278 279 279 276 275 274 277 278 276 275 276 276 276 275 276 277 277 278 278 279 280 280 280 281 281 281 281 281 281 281 282 282 282 282
278 278 278 278 277 278 278 279 279 279 280 280 280 281 281 282 282 283 283 282 282 281 278 277 276 277 278 277 279 281 281 278 277 277 277 279 278 277 277 279 279 279 278 275 274 272 274 277 275 274 275 277 276 275 276 276 277 278 278 278 279 279 279 280 280 280 280 280 281 281 281 281 281 281
278 278 278 278 279 279 279 279 279 279 279 279 279 279 279 280 281 282 282 282 282 281 281 279 278 279 280 280 280 281 281 280 279 279 278 278 278 278 279 278 278 278 278 275 274 270 274 277 274 274 275 276 275 275 275 276 277 277 277 278 277 278 278 279 279 279 280 280 280 280 280 280 280 281
278 278 278 278 279 279 279 280 281 281 280 279 278 277 278 277 278 279 281 283 284 283 282 282 281 281 281 282 281 281 281 280 280 279 279 278 277 276 274 273 275 275 277 277 273 271 271 275 273 273 274 274 273 274 274 275 276 276 276 277 276 277 278 278 278 279 279 279 279 279 280 280 280 280
278 278 278 278 278 279 279 280 282 282 282 279 277 277 276 276 277 277 278 280 282 283 284 285 285 285 285 285 285 285 284 283 281 279 276 275 276 273 272 273 274 274 277 276 274 271 269 273 273 271 272 273 272 273 273 274 275 275 275 275 275 276 277 277 277 278 278 278 278 278 279 279 279 278
279 279 280 280 278 278 278 280 281 282 281 279 279 278 276 276 276 276 277 277 278 280 281 282 282 283 284 284 285 285 286 286 285 281 276 276 276 273 273 271 273 274 276 273 274 269 269 271 271 270 271 272 272 273 273 274 273 273 274 274 275 275 276 276 277 277 277 277 277 277 278 278 278 276
280 280 280 281 280 279 279 280 281 282 281 279 279 279 278 276 276 277 279 278 277 277 277 277 278 278 279 279 279 280 281 282 282 281 280 279 276 272 272 272 272 271 273 274 274 269 269 270 271 271 268 268 271 273 272 273 272 272 272 272 272 274 274 275 276 276 276 276 276 276 277 277 277 275
282 282 281 281 282 282 282 282 282 282 282 280 279 279 278 277 276 279 279 279 279 278 277 276 277 277 277 277 278 278 278 278 278 278 278 278 278 276 274 273 272 271 272 272 273 270 270 271 268 271 269 266 265 270 271 271 271 271 271 271 270 272 273 273 273 274 275 275 275 275 276 276 276 274
282 283 283 282 282 283 283 283 284 284 284 283 281 280 279 279 280 281 279 279 280 279 278 278 278 277 276 276 276 276 276 276 277 277 278 278 278 277 275 273 272 272 273 272 274 270 267 269 268 269 267 267 267 266 268 269 271 270 271 271 270 271 271 271 271 271 273 273 274 275 275 275 277 275
282 283 283 282 282 283 283 283 284 284 284 284 283 282 284 284 284 282 282 281 281 280 279 279 278 277 276 275 275 275 275 275 276 276 277 277 277 277 277 275 273 271 272 273 275 270 268 267 268 267 267 266 266 267 266 267 269 270 271 271 270 270 271 270 270 270 270 270 270 272 272 276 276 276
282 282 282 282 283 282 282 282 283 283 283 283 282 284 284 284 284 283 282 282 281 280 280 279 277 277 277 276 276 276 276 276 276 276 276 276 276 276 275 275 275 274 273 272 274 272 270 268 269 267 266 266 265 266 265 264 266 270 269 269 270 270 270 270 269 269 270 270 270 273 273 273 274 275
282 281 282 282 281 281 282 282 283 283 283 282 283 283 283 283 283 282 281 280 280 279 279 278 278 278 278 277 277 277 277 277 276 276 275 275 275 274 273 273 273 272 271 270 270 271 269 268 267 268 267 265 264 263 263 266 266 267 266 268 269 269 270 269 269 269 269 269 269 269 270 270 271 271
282 282 282 282 282 281 281 280 280 280 280 280 280 280 280 280 279 279 279 279 278 277 277 277 277 278 278 279 279 278 277 275 274 274 273 273 271 270 270 269 269 269 269 269 269 269 268 268 267 267 266 266 264 264 264 263 265 265 266 265 265 268 268 269 268 268 268 268 268 269 268 269 269 270
282 281 281 279 279 278 279 278 277 278 277 278 278 278 278 277 277 278 277 277 277 276 276 277 276 277 278 278 276 273 274 274 273 273 271 271 269 269 268 267 268 267 267 267 268 268 268 268 268 267 265 265 265 263 264 263 263 265 265 265 265 267 268 268 267 268 268 267 268 268 269 269 269 270
278 278 277 277 277 277 277 277 277 277 277 277 277 278 278 278 277 277 277 276 275 275 275 275 275 276 276 275 275 275 274 273 273 273 270 270 269 268 268 267 266 267 267 266 266 267 267 267 267 267 264 264 264 264 264 264 263 263 264 265 265 263 265 267 267 267 267 267 267 267 268 269 269 270
276 276 275 275 276 276 276 277 277 277 277 277 277 277 277 277 277 277 278 277 276 276 276 275 275 275 275 275 275 274 273 272 272 271 269 269 268 268 267 265 265 267 267 266 265 265 266 266 266 267 266 265 263 264 264 264 263 263 263 264 265 265 266 265 265 266 267 267 266 266 267 267 268 269
274 274 275 276 276 277 276 276 276 276 276 276 276 276 276 276 276 276 275 274 274 274 274 273 273 273 273 273 273 272 271 271 271 271 269 268 268 267 266 264 265 266 266 267 266 265 265 265 266 266 266 266 266 265 263 261 262 264 263 264 264 264 265 266 266 266 267 266 264 265 265 267 268 269
277 276 276 276 276 275 275 275 274 274 275 274 274 275 275 274 274 274 273 273 273 273 272 272 272 272 272 271 271 271 270 270 271 270 269 267 267 265 264 264 264 266 266 266 266 266 265 264 265 265 265 264 264 264 263 262 261 263 264 264 264 263 264 265 266 266 266 265 264 263 263 265 267 269
277 276 275 275 275 275 275 274 273 273 272 272 272 272 272 272 272 271 271 271 270 270 270 270 270 270 270 270 270 269 269 269 269 269 269 267 266 265 264 264 264 265 265 265 265 265 265 264 264 263 263 263 262 263 265 264 262 262 263 264 264 263 263 264 265 265 265 264 265 263 263 264 265 268
277 276 275 274 273 273 272 271 270 271 270 270 270 269 269 269 270 269 268 268 267 267 268 268 268 268 268 268 268 268 268 267 267 267 267 266 265 265 265 264 264 264 265 265 265 265 264 263 263 262 261 262 261 261 262 267 266 263 262 262 264 263 263 264 264 264 263 263 264 264 262 262 264 267
274 272 272 271 270 270 269 270 269 268 268 268 267 268 267 266 267 266 265 265 265 266 265 266 266 266 266 266 265 266 266 266 265 265 265 265 265 265 264 263 263 263 263 264 264 263 263 262 263 262 261 260 260 259 261 265 267 269 265 263 263 263 263 263 262 262 263 264 264 264 263 263 264 266
272 272 271 270 269 269 269 268 267 267 267 266 266 265 265 265 264 264 264 264 263 264 264 264 264 264 263 263 263 263 263 264 264 263 264 264 263 263 263 262 263 263 263 263 263 263 263 262 262 261 261 259 259 259 259 263 263 264 266 264 262 262 262 261 261 261 262 264 263 264 265 264 264 266
270 269 269 268 268 267 266 266 265 265 263 264 263 263 262 262 262 262 262 262 263 262 262 262 262 262 261 261 262 262 261 261 261 261 262 262 262 261 261 261 261 262 262 262 262 262 262 261 261 261 261 260 259 259 260 259 259 262 264 265 263 261 261 261 261 262 262 262 263 264 265 266 267 270
267 267 266 266 265 265 264 263 262 262 261 261 261 261 261 260 261 261 261 261 261 260 261 261 261 261 260 261 261 261 261 260 260 261 261 261 261 261 260 261 260 260 260 260 260 261 261 261 261 261 261 261 261 261 260 259 260 261 261 262 265 264 263 263 262 261 261 263 263 262 262 263 263 265
264 264 263 263 262 262 261 261 260 260 260 259 258 260 260 259 259 260 260 261 260 259 259 260 259 259 259 259 260 260 259 259 260 260 260 260 260 260 260 260 259 260 259 259 260 260 261 261 260 262 260 260 260 260 259 257 257 259 261 263 265 266 267 267 264 263 262 263 262 261 261 261 262 263
261 261 261 260 259 259 259 258 259 259 258 259 259 258 258 259 259 260 260 259 258 257 258 259 259 259 259 259 259 259 258 258 258 259 259 259 258 259 259 259 259 259 259 258 259 260 261 260 260 260 259 259 258 257 256 257 257 259 260 261 262 265 266 266 267 267 265 263 262 261 261 262 263 262
260 260 259 259 258 258 258 258 258 258 258 258 258 257 257 258 258 258 258 258 258 258 258 258 258 258 258 258 259 258 258 258 258 258 258 258 258 258 258 258 258 258 258 259 260 260 260 260 259 259 259 258 257 257 256 257 257 258 259 260 260 262 262 265 265 266 267 268 268 266 265 263 262 260
258 258 259 258 257 257 257 257 257 257 257 257 257 257 257 257 257 258 257 257 257 257 257 257 257 257 257 257 258 258 258 258 258 257 257 257 257 257 257 257 258 258 258 258 258 258 259 259 258 258 257 257 257 257 256 257 257 258 258 259 259 259 259 261 262 264 265 266 267 267 268 269 268 268
258 258 258 258 257 257 257 257 256 256 256 256 256 256 256 256 257 257 256 256 256 256 256 256 256 256 257 257 257 256 257 258 258 257 258 257 258 257 257 257 257 257 257 257 257 257 258 257 257 258 257 257 257 256 257 257 257 257 257 257 257 258 259 260 259 260 261 262 265 267 268 268 269 269
Wind_Speed
5 4 3 3 3 3 2 3 3 3 2 2 1 1 4 4 5 4 7 8 7 7 9 5 6 7 5 5 4 4 4 2 1 3 3 4 4 6 11 13 12 11 11 11 11 12 12 13 13 14 14 15 15 17 18 19 20 21 22 23 24 25 26 26 27 27 28 29 29 29 30 30 31 33
4 5 4 3 4 3 3 3 3 3 3 2 1 1 1 2 5 5 6 4 4 4 6 6 4 6 6 5 4 4 4 5 3 3 4 3 4 8 13 13 12 11 11 11 12 13 13 13 13 14 14 14 16 17 18 19 20 21 22 23 24 25 25 26 26 26 27 28 29 29 30 30 31 31
5 5 5 4 4 3 4 4 3 2 2 1 1 0 1 2 3 4 4 6 2 4 4 5 3 6 7 5 4 4 4 5 4 4 3 4 5 10 10 12 11 11 11 12 12 13 13 13 14 14 14 14 16 17 18 19 20 21 21 22 23 24 25 25 26 26 27 28 29 29 31 31 31 31
4 6 5 4 4 4 4 3 3 2 1 1 1 1 2 2 2 3 4 6 5 4 3 3 4 5 5 5 5 5 4 4 8 4 4 4 6 6 6 9 11 11 11 11 12 13 14 14 14 14 14 14 16 18 18 19 19 20 20 21 22 23 23 24 25 26 27 28 28 29 30 31 30 31
5 5 5 5 4 4 4 3 3 2 2 1 1 1 2 3 2 3 4 6 6 2 3 2 3 4 4 5 6 5 5 4 4 4 5 5 4 5 6 6 10 11 11 10 12 14 15 15 14 14 13 14 16 17 18 18 18 19 19 20 21 22 23 23 24 25 26 27 27 29 29 30 31 32
4 5 5 5 4 3 3 3 3 2 2 2 2 2 2 3 3 3 4 6 5 7 3 3 3 4 5 4 5 5 5 5 4 5 5 4 5 5 6 6 7 10 10 11 12 14 15 15 15 14 12 14 16 17 17 18 18 18 19 20 21 21 22 22 23 25 25 27 27 28 29 29 29 30
5 6 5 5 4 3 3 3 2 2 2 2 3 3 2 3 3 3 4 4 6 7 6 1 3 4 4 5 5 4 4 4 5 6 6 5 5 5 6 7 7 10 11 12 13 14 16 16 16 14 13 14 16 17 17 17 17 17 18 19 20 21 21 21 23 24 25 26 27 27 28 29 30 30
7 7 6 5 5 4 4 3 2 2 3 3 3 4 3 4 4 3 3 5 5 6 6 5 4 4 4 4 4 4 4 6 6 6 6 6 7 7 7 8 8 9 12 13 13 15 16 17 16 15 14 14 16 17 17 17 17 17 18 19 20 20 20 21 22 24 25 26 27 27 27 29 30 30
7 6 5 6 5 5 4 3 3 4 5 4 4 4 4 3 3 2 3 4 4 5 7 7 4 3 4 4 4 5 5 6 6 7 7 7 8 8 8 7 8 10 14 16 16 16 16 18 17 16 14 14 17 17 17 17 17 17 17 18 19 19 20 21 22 23 24 25 26 26 27 28 29 29
5 6 6 6 6 5 5 4 4 4 5 4 4 5 4 3 3 4 4 4 5 6 7 7 7 5 5 5 5 5 5 5 7 7 7 7 8 8 8 8 6 6 6 6 6 10 13 16 18 15 14 15 17 17 17 17 17 17 17 18 18 18 20 21 22 23 24 25 25 26 27 28 29 29
5 5 5 6 5 5 5 4 5 4 4 4 5 5 4 4 4 5 5 5 5 6 7 8 8 7 6 5 7 4 4 5 6 7 8 8 7 8 8 8 7 6 7 10 14 12 10 11 10 13 16 16 17 18 16 16 16 17 17 18 18 19 20 21 21 22 23 24 25 25 26 27 28 28
5 5 4 4 5 5 4 4 4 5 5 3 4 4 4 5 5 6 6 5 5 6 7 8 7 6 5 5 6 5 4 6 8 8 7 9 8 6 7 8 8 7 7 8 7 8 11 13 16 18 17 17 17 18 15 16 16 17 18 18 19 20 20 20 21 22 22 23 24 25 25 26 27 28
5 5 4 4 5 5 4 6 4 4 4 4 3 4 5 6 6 5 5 4 4 5 6 8 7 6 6 7 6 7 7 8 9 5 6 8 9 8 9 9 8 8 8 7 7 7 7 8 8 8 8 8 10 12 14 13 16 16 16 19 20 19 19 20 21 21 22 23 24 24 25 26 26 27
5 5 4 4 6 6 7 9 10 11 10 10 8 6 6 5 5 5 5 6 5 5 7 8 6 6 8 8 8 9 8 7 6 7 8 9 9 8 9 9 8 8 7 7 8 8 6 7 8 8 9 7 7 7 7 7 9 13 18 20 19 19 19 20 21 21 22 23 24 24 24 25 27 27
6 5 4 3 4 6 7 9 12 13 13 13 14 15 14 10 7 5 6 7 6 6 8 6 5 7 10 11 9 8 8 7 8 8 7 8 7 8 8 9 6 4 7 7 7 8 7 7 9 8 8 8 8 7 7 11 14 16 18 20 18 18 19 21 21 22 23 23 24 24 24 25 26 28
5 5 4 4 3 5 7 7 7 11 14 14 15 16 17 17 17 15 11 7 6 8 8 7 7 8 10 11 8 8 8 8 7 8 8 9 9 9 9 10 9 3 6 5 7 10 6 6 7 8 8 8 7 8 10 13 16 16 18 19 17 16 19 21 22 22 22 23 24 24 25 25 26 27
5 4 4 4 4 5 10 8 7 7 7 11 16 17 17 18 19 19 21 19 13 7 7 7 9 12 11 11 11 10 9 7 8 7 8 9 9 9 10 11 9 7 4 3 7 11 8 3 8 9 8 7 7 8 10 13 15 16 17 17 16 15 19 22 22 22 23 23 24 24 24 25 25 26
5 6 5 4 5 6 7 8 8 7 7 7 7 9 11 11 14 19 21 21 23 19 12 10 12 15 11 12 12 8 6 8 9 8 9 9 9 10 12 11 11 8 2 4 6 10 11 5 6 8 8 8 8 8 10 12 15 17 17 15 13 15 20 22 22 23 23 23 24 25 25 25 25 26
6 5 4 5 7 6 6 7 7 7 7 5 5 6 8 11 11 11 12 14 14 13 13 14 15 15 12 13 13 10 8 9 9 9 10 10 11 11 10 11 10 9 6 5 6 10 9 5 8 10 8 7 7 8 10 14 16 16 15 13 11 16 21 22 22 23 23 24 24 24 24 25 25 26
5 5 6 7 8 7 6 7 11 10 6 6 9 10 9 8 10 11 13 14 13 12 12 13 15 13 13 12 11 9 8 7 6 7 8 9 10 7 10 14 9 10 7 8 8 8 10 7 8 10 8 7 9 8 8 12 15 13 12 9 10 17 21 21 21 22 23 24 24 24 24 24 25 25
5 6 7 8 7 6 7 7 11 12 11 8 10 11 12 10 8 11 8 13 20 22 23 23 23 23 23 22 22 22 22 16 11 9 11 12 10 10 12 13 13 12 10 8 9 6 9 6 6 8 8 8 10 9 9 8 8 9 8 9 13 16 20 20 20 21 23 23 23 23 23 23 24 27
5 7 11 9 6 7 8 7 10 11 10 9 10 10 12 15 11 10 5 6 10 18 22 24 26 25 25 25 26 26 27 27 20 11 11 8 8 11 11 12 11 11 9 6 7 4 8 5 5 7 8 9 8 7 5 4 3 6 8 11 14 17 18 17 19 22 22 22 22 22 23 23 23 16
6 7 9 12 11 9 9 11 13 15 13 9 11 9 9 11 14 11 4 8 6 5 7 10 12 13 16 15 14 15 20 20 18 14 14 8 8 9 10 10 8 9 11 7 11 6 5 4 5 4 6 8 7 4 4 3 3 5 6 7 9 14 15 16 18 20 21 20 20 21 22 22 19 12
5 5 4 7 12 16 16 17 17 17 17 12 10 8 9 10 14 7 8 10 8 7 7 8 8 11 10 10 10 10 10 11 11 12 11 12 11 11 9 10 9 11 6 5 9 6 3 3 5 2 3 5 7 0 2 7 6 5 6 7 8 10 13 14 14 18 19 18 19 20 21 20 18 13
6 4 4 3 9 14 16 16 17 18 18 17 11 10 11 10 13 13 12 13 13 10 12 12 9 8 8 8 8 8 9 9 8 9 11 10 10 11 12 10 8 10 7 7 12 5 4 3 3 3 4 5 8 9 8 7 7 5 6 7 7 8 9 9 9 11 13 16 16 20 19 19 21 15
5 5 4 4 7 13 15 15 16 16 18 20 15 17 22 24 24 17 12 13 13 12 9 10 10 8 6 6 6 8 8 8 9 9 8 8 10 10 9 9 10 9 7 7 15 7 4 4 5 5 4 5 9 7 11 10 6 7 5 5 8 9 8 9 10 11 10 9 10 12 16 22 19 17
6 6 6 6 7 9 10 12 14 16 18 16 14 20 21 22 23 21 13 12 11 10 9 8 7 8 9 8 8 7 7 7 7 7 7 7 7 8 7 6 6 6 2 3 8 8 5 3 3 4 5 5 9 10 9 10 8 4 8 7 8 8 8 7 9 11 10 10 10 18 19 16 16 17
4 4 5 3 2 6 10 13 14 14 13 10 15 16 17 18 17 11 11 10 10 9 9 9 10 10 8 7 7 8 8 7 4 5 5 5 5 6 4 6 7 4 1 3 4 5 5 5 5 5 5 7 9 11 12 9 8 8 9 9 8 8 6 6 10 11 10 9 10 11 11 10 9 10
5 4 5 9 11 9 8 7 8 7 9 12 13 15 17 16 9 9 9 10 10 11 11 11 11 10 9 10 11 5 2 1 1 2 2 2 2 2 3 4 4 3 2 3 4 6 6 6 6 5 6 7 8 11 10 12 9 9 8 10 10 4 8 8 8 9 10 10 10 10 10 10 10 10
12 10 8 5 4 6 6 6 4 5 5 8 12 12 12 7 7 7 8 9 9 10 11 11 11 11 11 8 4 2 3 3 5 4 4 5 5 3 6 7 7 5 6 5 6 8 8 8 7 7 6 8 8 10 9 10 11 8 8 8 10 11 5 5 8 10 10 10 10 11 11 10 10 10
2 3 4 3 3 3 6 8 9 8 8 6 5 5 4 5 5 5 5 7 8 8 9 9 9 8 7 3 4 6 4 6 7 5 3 6 7 4 6 7 9 8 6 6 6 9 9 7 7 7 8 8 8 9 9 8 11 11 9 7 8 10 9 9 9 9 9 10 10 11 11 10 9 9
1 0 1 2 3 3 3 3 3 4 4 5 5 4 5 5 5 7 10 10 8 7 7 8 8 8 8 9 9 6 4 5 8 5 5 6 7 7 4 5 9 9 6 5 6 8 9 8 8 8 9 9 9 8 7 8 9 10 10 8 9 9 8 8 10 9 9 10 11 10 10 10 9 9
2 2 2 2 3 4 5 5 5 5 5 5 5 5 5 5 5 5 5 6 7 7 6 8 8 9 8 9 8 8 8 9 9 7 5 6 6 6 4 7 8 9 9 7 5 5 6 7 8 9 8 8 9 9 7 8 9 8 9 9 8 8 9 9 9 10 10 10 10 11 11 10 9 9
3 4 4 5 5 5 4 4 5 5 4 4 4 4 5 5 4 5 5 5 6 6 7 7 8 8 8 8 8 8 9 9 8 7 6 6 5 5 7 7 8 9 9 10 5 3 4 5 5 6 7 8 7 8 8 9 9 7 8 8 7 9 8 8 9 10 10 10 11 12 11 10 10 9
4 4 4 4 3 3 3 2 2 2 2 3 3 4 4 4 4 4 4 5 6 7 7 7 7 8 8 8 8 8 8 9 9 8 6 5 5 6 7 7 9 9 8 9 8 4 3 3 5 6 7 7 7 9 13 12 7 8 7 7 7 8 7 7 9 10 11 11 9 10 11 11 11 9
3 2 1 1 1 1 1 1 2 2 3 3 3 4 4 4 4 4 4 6 6 6 6 6 7 7 7 8 8 9 9 8 9 8 9 7 6 6 7 8 8 9 9 9 8 6 3 4 5 6 7 7 7 8 4 17 17 5 6 8 6 6 7 8 9 10 10 9 8 9 10 11 12 11
1 1 1 1 0 1 1 2 2 2 2 3 3 3 3 4 4 4 5 6 5 5 5 6 6 6 7 7 8 8 8 8 9 9 8 8 8 8 8 8 8 9 8 9 7 6 5 5 6 6 7 7 7 8 7 2 10 13 9 10 9 6 7 8 9 10 10 9 9 8 9 10 12 13
0 1 1 0 0 1 1 1 1 2 2 2 2 2 2 3 3 4 4 4 4 4 5 5 5 6 6 6 7 7 7 7 8 9 9 8 8 8 8 8 9 8 9 8 5 5 5 5 5 5 5 6 6 8 8 4 3 5 5 5 7 7 7 9 9 9 10 9 9 9 9 10 12 12
0 0 0 1 0 1 0 1 1 1 1 1 1 2 2 2 2 3 3 3 3 4 4 4 4 5 5 5 6 6 7 7 8 8 8 8 8 9 9 9 9 8 8 7 6 5 5 5 5 4 4 5 6 6 6 7 7 6 9 11 8 8 9 8 9 9 10 10 9 9 9 9 13 20
1 1 1 1 0 0 0 0 0 0 0 0 1 1 1 2 2 2 2 3 3 4 4 4 4 5 5 5 5 5 6 6 7 7 7 7 7 8 8 8 8 8 8 8 8 7 5 5 4 4 3 3 4 4 5 6 9 9 10 12 14 11 9 8 9 10 11 10 9 9 10 9 10 10
1 1 1 1 1 0 0 0 0 0 0 0 1 2 1 2 2 2 2 3 4 3 3 4 4 4 4 4 5 5 6 6 6 6 7 7 8 8 9 9 8 7 7 7 7 7 5 3 5 7 5 3 5 6 6 7 7 6 5 4 6 11 14 13 10 10 11 11 9 9 9 9 10 10
1 1 1 1 1 0 0 0 0 0 1 1 1 1 1 2 2 4 4 4 2 3 3 3 4 4 4 4 4 5 5 6 6 6 6 6 7 7 7 7 7 6 6 7 7 6 3 3 3 3 3 4 4 4 7 6 7 6 6 7 7 10 12 12 14 14 12 10 9 9 8 7 7 9
1 1 1 1 1 1 1 1 1 1 1 1 1 1 1 2 2 2 2 2 2 2 2 2 3 4 4 4 4 5 5 5 5 6 6 6 6 7 7 6 6 7 7 7 6 5 5 4 4 5 5 4 4 4 7 7 6 7 8 7 8 8 8 10 11 14 16 17 14 10 7 7 7 8
1 1 1 1 1 1 1 1 1 1 1 1 1 1 2 2 2 2 2 2 2 2 2 2 3 3 4 5 5 5 4 4 5 6 6 6 6 6 6 7 6 6 6 6 6 5 5 4 4 4 5 5 5 5 6 5 6 6 6 7 8 9 9 8 8 9 9 9 8 8 10 11 11 13
1 1 1 1 1 1 1 1 2 2 2 2 2 2 2 2 3 2 2 2 2 2 2 2 3 3 4 4 4 4 5 5 5 5 5 6 6 6 5 6 6 6 6 5 5 6 5 5 5 4 5 5 4 5 5 5 6 6 7 8 9 8 7 6 8 8 8 6 6 9 10 12 12 13
Wind_Direction
127 115 115 106 110 99 91 80 72 69 65 73 113 160 200 222 232 209 218 217 217 183 200 204 184 188 192 189 191 186 224 165 243 280 273 285 291 303 308 307 306 309 310 309 309 308 306 308 312 319 323 326 324 321 322 324 325 324 326 327 327 327 328 328 328 328 327 326 325 324 322 323 323 322
119 117 113 118 110 96 86 76 63 56 54 79 115 217 302 279 254 263 260 257 191 165 186 219 167 182 190 195 194 201 224 144 235 258 269 273 284 299 299 296 295 298 301 303 302 300 301 302 307 313 319 321 318 319 320 322 322 324 326 326 325 326 327 327 327 326 325 324 324 323 321 321 320 321
132 133 124 109 105 102 96 91 81 79 92 93 128 186 247 244 262 259 264 263 190 144 194 188 152 160 180 183 197 204 224 179 212 254 265 266 280 290 282 278 280 285 290 294 295 297 298 299 302 309 314 316 314 315 318 319 320 323 324 323 324 325 326 326 325 323 323 323 322 322 320 323 322 321
126 126 123 124 123 124 116 112 110 122 108 99 164 213 227 232 248 251 251 259 260 154 199 151 149 157 166 186 207 229 212 173 200 248 261 263 272 270 273 272 273 270 277 287 293 294 294 294 297 303 307 310 310 312 314 316 319 322 321 322 324 325 324 324 323 322 321 322 321 320 320 320 323 321
122 129 125 118 112 125 127 125 135 135 137 144 212 233 236 231 222 234 251 260 270 209 150 184 172 160 180 222 211 224 233 227 219 217 253 254 261 269 270 275 268 264 268 280 289 289 289 289 293 298 301 304 306 308 310 314 317 318 320 321 322 323 323 322 321 320 320 320 320 319 319 321 323 323
125 129 128 123 125 125 119 122 131 137 149 186 203 211 231 242 231 244 253 266 268 274 173 181 171 176 194 241 202 211 238 249 246 256 258 258 251 259 270 268 268 266 265 274 279 282 283 285 288 293 296 299 302 305 308 310 313 315 317 318 320 321 321 319 318 318 319 319 320 319 319 320 320 320
133 133 136 136 132 122 124 129 125 142 178 196 217 221 225 240 241 231 248 261 267 270 270 190 201 221 202 226 232 219 236 253 257 265 264 255 254 250 254 260 265 263 266 270 275 276 278 280 283 286 290 295 299 302 303 305 309 312 314 316 317 318 317 315 316 317 318 318 318 319 318 318 318 320
152 153 145 143 139 137 133 141 159 186 198 205 219 221 230 237 240 239 233 250 263 277 278 259 231 242 230 238 225 230 246 251 260 260 267 258 253 251 246 250 255 258 261 266 271 270 270 274 278 280 284 289 293 297 299 301 305 309 311 313 314 314 313 313 314 316 317 317 318 318 318 318 318 319
155 152 143 140 141 142 142 161 192 199 201 214 221 229 228 232 241 228 240 245 252 262 266 272 261 232 247 254 256 256 264 269 264 258 253 254 253 253 253 250 251 255 260 266 266 263 260 267 272 275 278 283 288 292 295 297 301 305 309 310 310 309 310 312 314 315 316 316 317 317 317 317 317 318
148 148 147 141 145 155 172 188 192 201 206 211 226 231 234 234 237 242 241 238 243 252 261 267 273 252 243 255 251 236 235 261 276 272 259 255 249 247 252 248 242 239 244 250 255 250 246 254 264 266 273 279 282 286 289 293 297 301 305 305 305 306 309 312 313 314 315 316 316 317 317 317 317 317
149 150 147 144 155 170 186 186 192 196 205 214 227 227 232 235 236 247 243 236 240 246 257 263 258 264 260 251 267 261 229 250 260 272 284 275 254 242 242 254 248 242 245 250 248 245 244 251 260 268 274 272 273 278 281 287 292 297 299 301 302 306 308 311 313 315 315 316 316 316 316 316 316 316
154 148 136 147 162 184 187 188 197 190 213 209 224 227 221 230 234 242 245 238 237 245 252 256 260 255 262 259 252 244 231 258 256 237 240 267 274 264 254 249 257 253 254 259 256 244 242 246 253 263 267 261 258 267 274 276 284 289 294 298 302 305 308 311 314 315 315 316 316 316 316 316 315 315
148 150 162 170 183 192 202 215 215 207 198 208 229 226 209 225 232 240 242 240 239 250 253 260 254 254 257 254 252 246 232 234 256 264 246 261 269 273 271 263 250 249 251 255 256 247 238 245 251 264 271 259 250 259 257 265 272 279 294 303 304 305 308 312 314 315 315 316 316 316 316 315 314 315
150 163 162 181 181 187 210 224 230 232 229 224 228 240 228 213 223 228 230 236 239 245 252 251 249 254 254 251 242 246 243 246 250 252 248 259 268 271 268 270 255 239 233 246 256 253 240 244 255 262 267 263 245 251 252 252 268 285 296 302 303 304 309 314 316 316 316 316 316 316 315 314 314 314
161 169 173 168 186 204 223 228 231 234 232 232 231 233 238 235 217 210 221 232 226 237 248 253 246 247 258 257 250 244 252 240 240 245 251 260 266 265 271 276 280 191 184 234 260 265 252 238 251 257 266 265 251 249 252 260 267 278 291 299 301 303 310 315 317 316 316 317 317 316 315 315 314 314
141 151 160 187 177 209 219 221 225 233 238 238 238 238 237 236 235 230 225 225 228 228 237 247 240 245 248 259 253 250 241 240 237 239 242 245 249 257 256 263 268 246 166 240 265 277 273 237 246 259 265 263 247 246 250 259 268 275 288 296 297 301 312 317 317 317 317 317 317 317 316 315 314 314
142 145 167 192 205 222 228 229 234 236 243 240 241 244 245 244 241 238 236 234 233 238 241 240 250 244 245 257 255 240 241 244 250 248 246 245 246 250 258 260 269 266 183 223 269 281 283 255 258 262 271 267 254 254 250 253 260 271 284 290 291 301 313 317 318 318 317 318 317 317 316 316 315 313
159 171 174 189 221 221 215 226 228 236 237 245 244 241 241 244 243 240 238 236 236 235 238 240 245 250 235 240 253 255 233 226 240 247 252 255 255 252 255 267 271 273 166 224 285 286 277 262 258 268 276 277 262 258 261 258 266 275 279 280 283 304 315 317 318 318 318 317 317 317 317 316 315 313
162 160 164 201 226 222 208 213 213 223 235 239 242 244 245 246 248 246 237 228 229 230 230 235 241 251 248 247 254 259 249 237 244 250 258 263 266 271 280 279 267 266 234 230 228 256 275 281 282 277 285 286 270 267 266 260 266 269 270 269 278 306 311 314 317 319 318 317 317 317 317 316 315 313
176 171 196 213 228 233 228 216 221 228 239 249 255 257 254 251 251 249 241 240 239 234 230 232 240 247 251 251 255 259 258 261 262 265 269 268 267 261 266 268 263 261 252 242 223 250 268 273 277 282 288 282 272 267 264 266 263 256 260 258 281 301 307 310 314 316 318 317 316 316 316 316 315 314
171 195 212 225 231 237 242 232 240 243 237 248 253 258 262 261 256 256 249 243 248 250 250 253 258 262 264 265 266 266 263 260 257 261 263 258 253 246 255 259 265 264 269 245 219 239 269 271 274 285 285 282 279 275 269 262 242 236 238 256 282 295 301 305 310 314 315 315 313 314 315 316 316 316
209 216 218 221 226 235 249 241 241 244 242 248 253 244 258 267 262 259 234 233 243 246 252 258 262 266 271 273 275 275 275 275 272 252 246 246 249 245 243 257 260 269 263 200 196 206 251 279 276 282 290 286 266 255 254 250 224 216 245 267 283 292 295 301 309 312 312 312 311 310 313 316 318 317
222 230 221 224 230 237 248 251 251 248 238 240 251 249 249 255 261 260 254 248 246 238 240 248 254 257 260 265 266 269 272 273 274 272 275 269 241 245 251 256 265 271 262 212 184 221 251 243 265 295 312 301 293 252 267 205 249 283 286 286 289 288 295 302 306 308 308 310 308 308 311 316 320 315
229 205 200 211 230 240 245 247 248 247 240 237 246 241 246 254 262 277 267 263 265 260 243 256 250 256 257 258 260 260 261 258 251 255 255 260 262 260 251 252 245 255 258 143 178 202 255 220 261 236 247 293 304 312 267 285 277 280 287 285 282 294 302 303 306 307 306 307 306 305 309 312 317 315
241 243 223 191 209 229 240 245 247 249 247 248 250 247 248 247 267 279 278 278 263 258 263 263 248 244 241 238 240 244 246 247 241 237 241 247 249 252 256 245 236 248 238 167 179 164 219 215 236 235 248 240 262 288 284 282 285 277 286 281 286 300 303 305 308 306 308 307 304 304 306 310 315 315
245 243 242 240 207 222 237 246 256 262 269 270 268 267 269 272 276 277 271 273 275 266 260 263 264 256 244 237 232 235 236 236 237 232 231 237 247 250 246 240 245 246 248 167 185 188 190 252 224 240 258 258 274 268 290 292 283 282 276 286 295 296 303 306 307 306 310 309 305 304 307 310 310 312
245 246 243 253 237 244 258 264 271 277 278 277 273 276 279 281 283 286 285 286 286 281 276 266 254 263 264 260 259 246 242 239 232 232 236 240 243 246 249 258 271 282 342 134 204 206 211 232 191 207 252 265 279 288 275 283 296 299 294 293 296 299 299 298 306 308 307 307 304 305 308 307 310 313
242 248 254 257 220 260 265 272 279 284 289 290 289 292 295 299 300 296 292 289 286 285 281 278 276 278 276 264 263 269 270 274 247 236 237 241 245 256 265 272 272 280 231 181 195 212 212 233 242 229 238 256 265 273 285 282 278 290 300 301 297 295 293 300 305 303 304 308 307 309 308 311 316 317
254 259 269 283 289 303 320 320 312 302 291 292 296 298 299 298 290 288 285 284 284 280 279 281 283 285 288 285 283 299 322 353 309 248 258 255 263 255 274 262 264 263 222 198 203 210 218 225 241 244 236 230 246 264 268 279 293 294 299 305 301 300 307 298 300 306 308 305 303 305 305 309 312 312
274 285 301 322 318 294 291 294 297 299 297 299 295 292 294 290 287 288 288 287 285 284 285 286 286 290 296 305 2 15 299 285 284 278 254 261 253 225 253 262 257 214 221 221 221 229 231 235 239 233 236 242 239 256 261 276 284 285 296 291 293 301 276 305 314 306 302 303 303 304 303 303 303 305
266 278 286 295 306 293 284 276 269 267 271 276 292 310 308 303 298 295 297 298 298 302 303 304 307 307 305 290 279 296 298 295 298 282 265 269 266 253 255 255 265 261 220 197 215 229 234 231 235 233 237 246 246 245 256 260 274 288 287 285 294 293 306 311 305 300 302 301 303 300 299 302 302 300
252 291 313 272 250 229 237 263 274 285 293 297 299 299 301 293 286 281 281 283 283 282 287 293 298 300 303 303 301 300 294 295 295 281 265 265 271 268 252 256 264 266 254 197 203 219 229 233 234 238 236 238 245 253 248 253 261 279 285 282 281 282 289 303 305 302 304 305 302 301 301 302 302 302
160 172 216 252 274 292 297 297 296 299 297 296 301 294 291 300 303 304 306 302 301 302 306 302 302 302 303 301 303 299 296 297 297 288 271 266 260 268 250 251 264 270 272 256 187 196 211 225 231 235 240 244 245 248 249 265 266 269 276 282 288 284 300 302 303 304 308 307 303 305 303 300 298 301
250 255 259 266 271 271 278 283 283 287 294 304 316 318 329 323 315 316 317 315 317 322 313 307 304 301 302 300 299 300 298 300 300 294 272 269 270 259 260 261 265 268 267 269 258 217 191 206 221 236 244 250 253 244 238 256 270 269 268 283 286 295 300 303 298 302 305 306 306 303 301 300 300 301
236 229 231 239 243 252 263 288 337 353 348 339 337 328 329 322 337 346 339 348 345 328 318 312 311 307 303 300 300 298 299 299 300 302 284 260 262 259 262 265 273 274 271 274 269 240 202 216 235 250 249 242 244 237 215 224 251 257 274 273 286 291 296 301 302 301 303 303 301 296 299 298 299 306
240 247 253 267 45 25 346 326 336 332 334 326 331 328 328 325 339 345 345 344 331 316 318 317 315 313 313 314 313 310 307 306 300 299 296 283 268 269 267 264 270 273 277 275 277 271 217 230 244 252 262 265 270 282 268 212 213 238 267 283 290 299 303 303 299 297 298 296 295 296 298 302 303 306
263 86 94 137 304 334 300 303 322 332 337 336 332 331 327 325 329 345 339 329 317 323 327 325 323 327 325 323 320 316 314 313 311 308 306 304 298 289 282 281 275 275 273 275 277 275 261 256 253 253 262 273 274 279 280 336 223 235 269 286 295 303 310 303 300 295 291 292 294 295 296 301 298 301
176 132 150 195 230 273 293 312 318 309 330 341 328 326 332 333 327 330 324 325 333 336 338 337 330 328 329 328 321 318 317 314 313 310 311 312 309 302 298 299 298 293 288 285 277 264 258 252 250 249 256 265 285 281 293 286 259 264 269 295 298 307 299 293 291 289 292 293 293 296 299 294 294 296
106 122 122 122 269 260 288 302 317 310 345 329 341 328 329 321 324 327 330 329 337 339 331 325 326 328 324 322 323 320 319 320 315 314 313 313 317 313 311 308 304 302 300 294 288 273 257 254 254 252 248 263 268 292 303 299 283 289 288 285 287 288 278 277 281 287 291 296 296 299 292 288 287 289
78 90 90 92 105 111 123 90 47 340 304 318 329 317 312 308 319 318 314 325 331 330 321 314 319 322 320 324 323 319 315 312 312 314 316 313 313 311 306 305 304 303 298 293 291 286 278 271 281 287 303 292 310 326 311 288 283 278 279 280 268 253 264 276 285 291 292 291 299 303 302 304 298 304
128 130 110 108 119 124 140 177 139 212 255 258 265 279 293 295 288 291 305 307 324 315 307 309 311 310 311 316 317 321 314 312 313 313 315 314 309 308 309 307 297 297 296 295 296 296 304 6 27 13 11 313 298 295 282 272 270 277 284 298 315 289 282 283 284 285 284 291 292 293 296 300 305 308
139 129 130 140 137 150 153 199 229 216 237 243 254 265 266 272 266 282 289 289 288 282 290 305 313 308 308 313 313 314 311 308 309 311 310 310 310 308 308 307 303 306 303 298 302 309 6 28 339 333 299 292 286 274 274 275 286 298 305 310 303 290 296 300 293 283 277 278 283 284 289 296 302 304
147 148 157 149 153 178 192 201 231 229 243 246 247 262 270 273 275 277 277 286 288 290 296 303 307 310 309 313 311 309 306 305 308 307 306 303 306 308 306 306 306 303 299 298 302 311 311 319 313 306 302 289 273 260 274 285 292 297 302 313 311 307 304 302 296 293 289 282 275 269 273 290 305 302
159 175 168 163 194 204 212 212 228 244 240 245 250 247 253 261 269 272 272 276 283 289 300 299 297 300 305 307 309 307 307 309 310 308 307 307 302 301 299 300 300 299 300 299 306 305 306 301 300 299 294 286 286 275 274 287 291 303 314 309 301 303 306 315 315 305 297 285 280 286 295 297 295 295
174 185 187 194 211 222 219 219 226 232 239 242 244 246 249 254 262 268 265 259 260 269 276 276 284 289 299 301 301 301 306 308 308 304 302 302 304 303 304 301 304 307 302 305 304 305 307 304 301 292 281 287 282 268 276 281 293 306 301 298 296 298 302 317 323 320 320 318 299 309 318 318 315 314